Charleston, SC

11:45 AM EST on December 03, 2016 (GMT -0500)
Charleston Executive

Weather History for KJZI - October, 2013

Change the Weather History Date:

Monday, October 21, 2013

  Actual Average (KCHS) Record (KCHS)
Temperature  
Mean Temperature 66 °F 65 °F  
Max Temperature 71 °F 76 °F 88 °F (1993)
Min Temperature 62 °F 55 °F 37 °F (1952)
Degree Days  
Heating Degree Days 0 3  
Month to date heating degree days 31  
Since 1 July heating degree days 34  
Cooling Degree Days 2 3  
Month to date cooling degree days 102  
Year to date cooling degree days 2240  
Growing Degree Days 16 (Base 50)    
Moisture  
Dew Point 59 °F    
Average Humidity 78    
Maximum Humidity 88    
Minimum Humidity 69    
Precipitation  
Precipitation 0.00 in 0.11 in 2.05 in (1959)
Month to date precipitation 2.80  
Year to date precipitation 44.54  
Sea Level Pressure  
Sea Level Pressure 30.06 in    
Wind  
Wind Speed 5 mph (NNE)    
Max Wind Speed 10 mph    
Max Gust Speed -    
Visibility 10 miles    
Events      
T = Trace of Precipitation, MM = Missing Value Source: NWS Daily Summary

Daily Weather History Graph

Daily Weather History Graph

Search for Another Location

Airport or City:

Trip Planner

Search our weather history database for the weather conditions in past years. The results will help you decide how hot, cold, wet, or windy it might be!

Date:

Astronomy

Oct. 21, 2013 Rise Set
Actual Time 7:28 AM EDT 6:39 PM EDT
Civil Twilight 7:03 AM EDT 7:04 PM EDT
Nautical Twilight 6:35 AM EDT 7:33 PM EDT
Astronomical Twilight 6:06 AM EDT 8:02 PM EDT
Moon 8:39 PM EDT (10/21) 9:54 AM EDT (10/21)
Length of Visible Light 12h 01m
Length of Day
11h 11m
Waning Gibbous, 93% of the Moon is Illuminated
Oct 21
Waning Gibbous
Oct 26
Last Quarter
Nov 3
New
Nov 10
First Quarter
Nov 17
Full

Hourly Weather History & Observations

Time (EDT) Temp. Dew Point Humidity Pressure Visibility Wind Dir Wind Speed Gust Speed Precip Events Conditions
12:15 AM 62.6 °F 55.4 °F 77% 30.07 in 10.0 mi North 5.8 mph - 0.00 in   Mostly Cloudy
12:35 AM 62.6 °F 55.4 °F 77% 30.06 in 10.0 mi North 5.8 mph - 0.00 in   Mostly Cloudy
12:55 AM 62.6 °F 55.4 °F 77% 30.06 in 10.0 mi Calm Calm - 0.00 in   Partly Cloudy
1:15 AM 62.6 °F 55.4 °F 77% 30.06 in 10.0 mi North 5.8 mph - 0.00 in   Clear
1:35 AM 62.6 °F 55.4 °F 77% 30.06 in 10.0 mi North 5.8 mph - 0.00 in   Scattered Clouds
1:55 AM 62.6 °F 55.4 °F 77% 30.06 in 10.0 mi North 6.9 mph - 0.00 in   Overcast
2:15 AM 62.6 °F 55.4 °F 77% 30.05 in 10.0 mi NNE 6.9 mph - 0.00 in   Mostly Cloudy
2:35 AM 62.6 °F 55.4 °F 77% 30.05 in 10.0 mi NNE 5.8 mph - 0.00 in   Mostly Cloudy
2:55 AM 62.6 °F 55.4 °F 77% 30.06 in 10.0 mi North 6.9 mph - 0.00 in   Mostly Cloudy
3:15 AM 64.4 °F 55.4 °F 73% 30.05 in 10.0 mi North 8.1 mph - 0.00 in   Overcast
3:35 AM 64.4 °F 55.4 °F 73% 30.05 in 10.0 mi NNE 6.9 mph - 0.00 in   Overcast
3:55 AM 64.4 °F 55.4 °F 73% 30.05 in 10.0 mi North 5.8 mph - 0.00 in   Mostly Cloudy
4:15 AM 64.4 °F 55.4 °F 73% 30.05 in 10.0 mi NNE 5.8 mph - 0.00 in   Mostly Cloudy
4:35 AM 64.4 °F 55.4 °F 73% 30.06 in 10.0 mi NNE 8.1 mph - 0.00 in   Overcast
4:55 AM 64.4 °F 55.4 °F 73% 30.06 in 10.0 mi NNE 5.8 mph - 0.00 in   Overcast
5:15 AM 64.4 °F 55.4 °F 73% 30.06 in 10.0 mi NE 5.8 mph - 0.00 in   Overcast
5:35 AM 64.4 °F 55.4 °F 73% 30.07 in 10.0 mi North 6.9 mph - 0.00 in   Mostly Cloudy
5:55 AM 64.4 °F 55.4 °F 73% 30.07 in 10.0 mi Calm Calm - 0.00 in   Overcast
6:15 AM 64.4 °F 55.4 °F 73% 30.07 in 10.0 mi NNE 5.8 mph - 0.00 in   Overcast
6:35 AM 64.4 °F 55.4 °F 73% 30.08 in 10.0 mi Calm Calm - 0.00 in   Mostly Cloudy
6:55 AM 64.4 °F 57.2 °F 77% 30.08 in 10.0 mi North 4.6 mph - 0.00 in   Mostly Cloudy
7:15 AM 64.4 °F 57.2 °F 77% 30.08 in 10.0 mi Calm Calm - 0.00 in   Scattered Clouds
7:35 AM 64.4 °F 57.2 °F 77% 30.08 in 10.0 mi North 3.5 mph - 0.00 in   Mostly Cloudy
7:55 AM 64.4 °F 57.2 °F 77% 30.08 in 10.0 mi North 3.5 mph - 0.00 in   Overcast
8:15 AM 64.4 °F 57.2 °F 77% 30.09 in 10.0 mi Calm Calm - 0.00 in   Mostly Cloudy
8:35 AM 64.4 °F 57.2 °F 77% 30.10 in 10.0 mi North 5.8 mph - 0.00 in   Scattered Clouds
8:55 AM 66.2 °F 59.0 °F 78% 30.09 in 10.0 mi North 5.8 mph - 0.00 in   Mostly Cloudy
9:15 AM 66.2 °F 60.8 °F 83% 30.10 in 10.0 mi North 5.8 mph - 0.00 in   Mostly Cloudy
9:35 AM 66.2 °F 60.8 °F 83% 30.11 in 10.0 mi North 8.1 mph - 0.00 in   Mostly Cloudy
9:55 AM 66.2 °F 60.8 °F 83% 30.11 in 10.0 mi NNE 5.8 mph - 0.00 in   Mostly Cloudy
10:15 AM 66.2 °F 60.8 °F 83% 30.10 in 10.0 mi NE 4.6 mph - 0.00 in   Mostly Cloudy
10:35 AM 68.0 °F 62.6 °F 83% 30.11 in 10.0 mi NNE 5.8 mph - 0.00 in   Mostly Cloudy
10:55 AM 69.8 °F 62.6 °F 78% 30.11 in 10.0 mi NNE 9.2 mph - 0.00 in   Mostly Cloudy
11:15 AM 69.8 °F 62.6 °F 78% 30.11 in 10.0 mi NNE 9.2 mph - 0.00 in   Mostly Cloudy
11:35 AM 69.8 °F 62.6 °F 78% 30.10 in 10.0 mi NE 8.1 mph - 0.00 in   Mostly Cloudy
11:55 AM 69.8 °F 62.6 °F 78% 30.11 in 10.0 mi NNE 8.1 mph - 0.00 in   Mostly Cloudy
12:15 PM 69.8 °F 62.6 °F 78% 30.10 in 10.0 mi NE 10.4 mph - 0.00 in   Mostly Cloudy
12:35 PM 69.8 °F 62.6 °F 78% 30.09 in 10.0 mi NE 10.4 mph - 0.00 in   Mostly Cloudy
12:55 PM 71.6 °F 62.6 °F 73% 30.09 in 10.0 mi NE 8.1 mph - 0.00 in   Mostly Cloudy
1:15 PM 71.6 °F 62.6 °F 73% 30.08 in 10.0 mi NNE 8.1 mph - 0.00 in   Mostly Cloudy
1:35 PM 71.6 °F 62.6 °F 73% 30.07 in 10.0 mi North 8.1 mph - 0.00 in   Overcast
1:55 PM 69.8 °F 62.6 °F 78% 30.08 in 10.0 mi North 6.9 mph - 0.00 in   Mostly Cloudy
2:15 PM 71.6 °F 62.6 °F 73% 30.05 in 10.0 mi NE 6.9 mph - 0.00 in   Mostly Cloudy
2:35 PM 71.6 °F 62.6 °F 73% 30.06 in 10.0 mi NNE 8.1 mph - 0.00 in   Mostly Cloudy
2:55 PM 71.6 °F 62.6 °F 73% 30.04 in 10.0 mi NNE 6.9 mph - 0.00 in   Mostly Cloudy
3:15 PM 71.6 °F 62.6 °F 73% 30.05 in 10.0 mi North 6.9 mph - 0.00 in   Mostly Cloudy
3:35 PM 71.6 °F 62.6 °F 73% 30.04 in 10.0 mi North 6.9 mph - 0.00 in   Mostly Cloudy
3:55 PM 71.6 °F 62.6 °F 73% 30.04 in 10.0 mi North 6.9 mph - 0.00 in   Scattered Clouds
4:15 PM 69.8 °F 62.6 °F 78% 30.03 in 10.0 mi NNE 8.1 mph - 0.00 in   Clear
4:35 PM 71.6 °F 60.8 °F 69% 30.04 in 10.0 mi NNE 6.9 mph - 0.00 in   Partly Cloudy
4:55 PM 69.8 °F 60.8 °F 73% 30.03 in 10.0 mi NNE 8.1 mph - 0.00 in   Scattered Clouds
5:15 PM 69.8 °F 60.8 °F 73% 30.03 in 10.0 mi NNE 5.8 mph - 0.00 in   Mostly Cloudy
5:35 PM 69.8 °F 60.8 °F 73% 30.02 in 10.0 mi NNE 3.5 mph - 0.00 in   Scattered Clouds
5:55 PM 69.8 °F 60.8 °F 73% 30.03 in 10.0 mi North 5.8 mph - 0.00 in   Partly Cloudy
6:15 PM 68.0 °F 60.8 °F 78% 30.02 in 10.0 mi NNE 5.8 mph - 0.00 in   Clear
6:35 PM 68.0 °F 60.8 °F 78% 30.04 in 10.0 mi North 4.6 mph - 0.00 in   Mostly Cloudy
6:55 PM 68.0 °F 60.8 °F 78% 30.04 in 10.0 mi Calm Calm - 0.00 in   Overcast
7:15 PM 68.0 °F 60.8 °F 78% 30.04 in 10.0 mi Calm Calm - 0.00 in   Mostly Cloudy
7:35 PM 66.2 °F 60.8 °F 83% 30.04 in 10.0 mi Calm Calm - 0.00 in   Partly Cloudy
7:55 PM 66.2 °F 60.8 °F 83% 30.05 in 10.0 mi Calm Calm - 0.00 in   Scattered Clouds
8:15 PM 66.2 °F 62.6 °F 88% 30.05 in 10.0 mi Calm Calm - 0.00 in   Mostly Cloudy
8:35 PM 66.2 °F 62.6 °F 88% 30.05 in 10.0 mi Calm Calm - 0.00 in   Partly Cloudy
8:55 PM 66.2 °F 62.6 °F 88% 30.04 in 10.0 mi Calm Calm - 0.00 in   Clear
9:15 PM 66.2 °F 60.8 °F 83% 30.02 in 10.0 mi East 6.9 mph - 0.00 in   Partly Cloudy
9:35 PM 66.2 °F 60.8 °F 83% 30.02 in 10.0 mi Calm Calm - 0.00 in   Partly Cloudy
9:55 PM 66.2 °F 60.8 °F 83% 30.03 in 10.0 mi Calm Calm - 0.00 in   Clear
10:15 PM 66.2 °F 60.8 °F 83% 30.03 in 10.0 mi Calm Calm - 0.00 in   Clear
10:35 PM 66.2 °F 60.8 °F 83% 30.03 in 10.0 mi Calm Calm - 0.00 in   Clear
10:55 PM 66.2 °F 60.8 °F 83% 30.04 in 10.0 mi NNE 3.5 mph - 0.00 in   Mostly Cloudy
11:15 PM 66.2 °F 60.8 °F 83% 30.03 in 10.0 mi Calm Calm - 0.00 in   Overcast
11:35 PM 66.2 °F 60.8 °F 83% 30.02 in 10.0 mi NNE 3.5 mph - 0.00 in   Mostly Cloudy
11:55 PM 66.2 °F 60.8 °F 83% 30.02 in 10.0 mi NNE 3.5 mph - 0.00 in   Overcast